星链-6207 (STARLINK-6207 )

导读

STARLINK-6207是美国太空探索技术公司Starlink星链互联网卫星星座的一员,于2023年6月12日发射入轨,旨在为全球提供低延迟、高速率的卫星互联网服务,尤其覆盖地面网络难以抵达的偏远区域。星链星座依托近地轨道部署,该卫星加入后进一步扩充了星链的服务容量,推进星座组网进程。

Basic Information
目录编号:
56900
目录名称:
STARLINK-6207
国际标识:
2023-083AA
轨道中心:
EARTH
卫星名称:
星链-6207
卫星全名:
星链-6207 (STARLINK-6207 )
卫星状态:
在轨 (已飞行1180 天)
发射日期:
2023-06-12 UTC
国别 :
美国 (US)
星等 :
--
Orbit Information
数据来源 国际轨道数据 AOE轨道数据
星历时间 2026-09-04T06:17:36+0800
11小时前
查看轨道信息
2026-09-03T23:00:00+0800
19小时前
查看轨道信息
半长轴 6861.199km 6861.183km
偏心率 0.0001381 0.0001651
轨道倾角 43.003° 43.002°
近地点辐角 245.162° 233.428°
升交点赤经 144.420° 146.139°
平近点角 114.909° 253.539°
近地点 482.114km 481.913km
远地点 484.01km 484.179km
周期 94.267分钟 94.267分钟
每日圈数 15.275759 15.275811
Detailed Information
固有亮度:
5
最大亮度:
2.4
卫星平台:
Starlink v1.5
覆盖范围:
全球
运营商:
太空探索技术公司
运营商所在国:
美国
制造商(研发单位):
太空探索技术公司
制造商所在国:
美国
使用方式:
暂无
Satellite Introduction
星链(Starlink)计划是由太空探索技术公司(SpaceX)提出的一个巨型低轨卫星互联网星座项目,计划在2019年至2024年间在太空搭建由约1.2万颗卫星组成的“星链”网络,其中1584颗将部署在地球上空550千米处的近地轨道,并从2020年开始工作。该卫星仍在工作。
2D Orbit Map
3D Orbit Map
Orbit Altitude Analysis Chart
Orbit Inclination Analysis Chart
Orbit Comprehensive Analysis Chart
View Comprehensive Chart
Conjunction Data List
Event ID Objects TCA Miss Dist (km) Collision Risk Probability Collision Risk Index (CRI) Action
CDM_260904-124405-690006-368021
2026-09-04T
12:44:33+0000
0.595 km
远距离
5.481953E-5 中风险 0.7
CDM_260906-161705-690006-193321
2026-09-06T
16:17:36+0000
1.495 km
极远距离
5.212589E-6 低风险 0.49
CDM_260904-181405-690006-368021
2026-09-04T
18:14:06+0000
1.236 km
极远距离
4.939015E-6 低风险 0.49
CDM_260906-144305-690006-193321
2026-09-06T
14:43:27+0000
1.579 km
极远距离
4.374056E-6 低风险 0.48
CDM_260904-163905-690006-368021
2026-09-04T
16:39:56+0000
1.647 km
极远距离
2.004641E-6 低风险 0.41
CDM_260904-141805-690006-368021
2026-09-04T
14:18:42+0000
2.239 km
极远距离
9.53775E-7 极低风险 0.35